Location: Tabor
(49.4170°N, 14.6670°E)
Time: 21:49:23
(UTC+02:00)

ISS - Pass Details

Date: 14 September 2024
Orbit: 411 x 424 km, 51.6° (Epoch: 12 October)

Event Time Altitude Azimuth Distance (km) Brightness Sun altitude
Rises 22:00:40 0° 265° (W) 2,376 0.7 -25.3°
Reaches altitude 10° 22:02:47 10° 269° (W) 1,515 -0.3 -25.6°
Enters shadow 22:04:24 26° 277° (W) 891 -1.6 -25.8°
